When you browse on this site, cookies collect data to enhance your experience and personalize the content and advertising you see.
Visit our Privacy Policy to learn more. By continuing to use the site, you agree to this use of cookies and data.
  • In Belgium
  • List of Countries
  • For 7 days
  • Water Temperature
  • Satellite Maps
  • Weather Map
  • Weather Widgets
  • user-avatar
    Login

    Hourly Weather Yeghegnadzor

    Today, 21 January, Monday

    Time Temperature Precipitation Wind Pressure Humidity
    00:00 -7°C° 0 mm 2 mps 653 mmHg 44%
    01:00 -7°C° 0 mm 2 mps 653 mmHg 44%
    02:00 -7°C° 0 mm 2 mps 653 mmHg 43%
    03:00 -7°C° 0 mm 2 mps 653 mmHg 43%
    04:00 -8°C° 0 mm 2 mps 653 mmHg 44%
    05:00 -8°C° 0 mm 2 mps 653 mmHg 45%
    06:00 -8°C° 0 mm 2 mps 653 mmHg 47%
    07:00 -7°C° 0 mm 2 mps 654 mmHg 49%
    08:00 -5°C° 0 mm 2 mps 654 mmHg 52%
    09:00 -4°C° 0 mm 2 mps 654 mmHg 54%
    10:00 -3°C° 0 mm 2 mps 654 mmHg 53%
    11:00 0°C° 0 mm 1 mps 654 mmHg 53%
    12:00 +1°C° 0 mm 1 mps 654 mmHg 52%
    13:00 +1°C° 0 mm 1 mps 653 mmHg 53%
    14:00 +1°C° 0 mm 1 mps 653 mmHg 55%
    15:00 +1°C° 0 mm 1 mps 652 mmHg 57%
    16:00 0°C° 0 mm 1 mps 652 mmHg 57%
    17:00 -2°C° 0 mm 1 mps 652 mmHg 56%
    18:00 -6°C° 0 mm 2 mps 651 mmHg 56%
    19:00 -6°C° 0 mm 2 mps 651 mmHg 55%
    20:00 -6°C° 0 mm 2 mps 651 mmHg 53%
    21:00 -7°C° 0 mm 2 mps 651 mmHg 52%
    22:00 -7°C° 0 mm 2 mps 651 mmHg 52%
    23:00 -7°C° 0 mm 2 mps 651 mmHg 53%

    Tomorrow, 22 January, Tuesday

    Time Temperature Precipitation Wind Pressure Humidity
    00:00 -7°C° 0 mm 2 mps 651 mmHg 53%
    01:00 -7°C° 0 mm 2 mps 651 mmHg 54%
    02:00 -7°C° 0 mm 2 mps 650 mmHg 54%
    03:00 -7°C° 0 mm 2 mps 650 mmHg 55%
    04:00 -7°C° 0 mm 2 mps 650 mmHg 55%
    05:00 -8°C° 0 mm 2 mps 650 mmHg 55%
    06:00 -8°C° 0 mm 2 mps 650 mmHg 55%
    07:00 -6°C° 0 mm 2 mps 650 mmHg 55%
    08:00 -3°C° 0 mm 1 mps 650 mmHg 56%
    09:00 -2°C° 0 mm 1 mps 651 mmHg 56%
    10:00 -1°C° 0 mm 1 mps 651 mmHg 54%
    11:00 0°C° 0 mm 1 mps 650 mmHg 53%
    12:00 +2°C° 0 mm 1 mps 650 mmHg 51%
    13:00 +2°C° 0 mm 1 mps 650 mmHg 53%
    14:00 +2°C° 0 mm 1 mps 650 mmHg 54%
    15:00 +2°C° 0 mm 1 mps 650 mmHg 56%
    16:00 0°C° 0 mm 1 mps 649 mmHg 56%
    17:00 -1°C° 0 mm 1 mps 649 mmHg 56%
    18:00 -3°C° 0 mm 1 mps 649 mmHg 56%
    19:00 -3°C° 0 mm 1 mps 649 mmHg 54%
    20:00 -4°C° 0 mm 1 mps 650 mmHg 52%
    21:00 -6°C° 0 mm 2 mps 650 mmHg 50%
    22:00 -6°C° 0 mm 2 mps 650 mmHg 50%
    23:00 -6°C° 0 mm 2 mps 650 mmHg 51%

    Day after tomorrow, 23 January, Wednesday

    Time Temperature Precipitation Wind Pressure Humidity
    00:00 -6°C° 0 mm 2 mps 650 mmHg 51%
    01:00 -6°C° 0 mm 2 mps 650 mmHg 52%
    02:00 -7°C° 0 mm 2 mps 650 mmHg 53%
    03:00 -7°C° 0 mm 2 mps 651 mmHg 54%
    04:00 -7°C° 0 mm 2 mps 651 mmHg 56%
    05:00 -7°C° 0 mm 2 mps 651 mmHg 57%
    06:00 -7°C° 0 mm 2 mps 651 mmHg 59%
    07:00 -6°C° 0 mm 2 mps 651 mmHg 60%
    08:00 -5°C° 0 mm 2 mps 652 mmHg 61%
    09:00 -1°C° 0 mm 1 mps 653 mmHg 61%
    10:00 0°C° 0 mm 1 mps 653 mmHg 61%
    11:00 +1°C° 0 mm 1 mps 653 mmHg 60%
    12:00 +2°C° 0 mm 1 mps 653 mmHg 59%
    13:00 +2°C° 0 mm 1 mps 653 mmHg 61%
    14:00 +2°C° 0 mm 1 mps 653 mmHg 62%
    15:00 +2°C° 0 mm 1 mps 652 mmHg 64%
    16:00 +1°C° 0 mm 1 mps 652 mmHg 66%
    17:00 -1°C° 0 mm 1 mps 652 mmHg 67%
    18:00 -2°C° 0 mm 1 mps 652 mmHg 69%
    19:00 -5°C° 0 mm 2 mps 653 mmHg 68%
    20:00 -5°C° 0 mm 2 mps 653 mmHg 67%
    21:00 -5°C° 0 mm 2 mps 653 mmHg 66%
    22:00 -5°C° 0 mm 2 mps 653 mmHg 67%
    23:00 -5°C° 0 mm 2 mps 654 mmHg 68%

    24 January, Thursday

    Time Temperature Precipitation Wind Pressure Humidity
    00:00 -5°C° 0 mm 2 mps 654 mmHg 69%
    01:00 -6°C° 0 mm 2 mps 654 mmHg 71%
    02:00 -6°C° 0 mm 2 mps 654 mmHg 72%
    03:00 -6°C° 0 mm 2 mps 654 mmHg 74%
    04:00 -6°C° 0 mm 2 mps 654 mmHg 75%
    05:00 -6°C° 0 mm 2 mps 653 mmHg 75%
    06:00 -6°C° 0 mm 2 mps 653 mmHg 75%
    07:00 -5°C° 0 mm 2 mps 654 mmHg 74%
    08:00 -4°C° 0 mm 2 mps 654 mmHg 72%
    09:00 -3°C° 0 mm 2 mps 655 mmHg 70%
    10:00 -1°C° 0 mm 2 mps 655 mmHg 69%
    11:00 +1°C° 0 mm 2 mps 654 mmHg 67%
    12:00 +2°C° 0 mm 2 mps 654 mmHg 66%
    13:00 +2°C° 0 mm 2 mps 654 mmHg 66%
    14:00 +2°C° 0 mm 2 mps 653 mmHg 66%
    15:00 +2°C° 0 mm 2 mps 653 mmHg 66%
    16:00 +1°C° 0 mm 2 mps 653 mmHg 67%
    17:00 -2°C° 0 mm 2 mps 653 mmHg 67%
    18:00 -3°C° 0 mm 2 mps 652 mmHg 68%
    19:00 -3°C° 0 mm 2 mps 652 mmHg 66%
    20:00 -3°C° 0 mm 2 mps 652 mmHg 65%
    21:00 -4°C° 0 mm 2 mps 652 mmHg 63%
    22:00 -5°C° 0 mm 3 mps 652 mmHg 64%
    23:00 -5°C° 0 mm 3 mps 652 mmHg 64%

    25 January, Friday

    Time Temperature Precipitation Wind Pressure Humidity
    00:00 -5°C° 0 mm 3 mps 652 mmHg 65%
    01:00 -4°C° 0 mm 2 mps 652 mmHg 65%
    02:00 -3°C° 0 mm 2 mps 651 mmHg 66%
    03:00 -3°C° 0 mm 2 mps 651 mmHg 66%
    04:00 -3°C° 0.2 mm 2 mps 651 mmHg 71%
    05:00 -2°C° 0.2 mm 2 mps 651 mmHg 76%
    06:00 -2°C° 0.2 mm 2 mps 651 mmHg 81%
    07:00 -2°C° 0.1 mm 2 mps 651 mmHg 81%
    08:00 -1°C° 0.1 mm 2 mps 651 mmHg 81%
    09:00 +1°C° 0.1 mm 2 mps 652 mmHg 81%
    10:00 +1°C° 0.1 mm 2 mps 651 mmHg 80%
    11:00 +2°C° 0.1 mm 2 mps 651 mmHg 78%
    12:00 +3°C° 0.1 mm 2 mps 651 mmHg 77%
    13:00 +3°C° 0 mm 2 mps 651 mmHg 75%
    14:00 +3°C° 0 mm 2 mps 650 mmHg 74%
    15:00 +3°C° 0 mm 3 mps 650 mmHg 72%
    16:00 +2°C° 0 mm 2 mps 650 mmHg 74%
    17:00 +1°C° 0 mm 2 mps 650 mmHg 75%
    18:00 -2°C° 0 mm 2 mps 649 mmHg 76%
    19:00 -2°C° 0 mm 2 mps 650 mmHg 76%
    20:00 -2°C° 0 mm 2 mps 650 mmHg 76%
    21:00 -2°C° 0 mm 2 mps 650 mmHg 75%
    22:00 -2°C° 0 mm 2 mps 650 mmHg 75%
    23:00 -2°C° 0 mm 2 mps 650 mmHg 76%

    26 January, Saturday

    Time Temperature Precipitation Wind Pressure Humidity
    00:00 -2°C° 0 mm 2 mps 650 mmHg 76%
    01:00 -3°C° 0 mm 2 mps 649 mmHg 76%
    02:00 -3°C° 0 mm 2 mps 649 mmHg 76%
    03:00 -3°C° 0 mm 2 mps 649 mmHg 76%
    04:00 -3°C° 0 mm 2 mps 649 mmHg 76%
    05:00 -3°C° 0 mm 2 mps 649 mmHg 77%
    06:00 -3°C° 0 mm 2 mps 649 mmHg 77%
    07:00 -2°C° 0 mm 2 mps 649 mmHg 75%
    08:00 -2°C° 0 mm 2 mps 650 mmHg 74%
    09:00 -1°C° 0 mm 2 mps 650 mmHg 73%
    10:00 +2°C° 0 mm 2 mps 650 mmHg 72%
    11:00 +3°C° 0 mm 2 mps 650 mmHg 70%
    12:00 +3°C° 0 mm 3 mps 649 mmHg 69%
    13:00 +4°C° 0 mm 2 mps 649 mmHg 69%
    14:00 +4°C° 0 mm 2 mps 649 mmHg 69%
    15:00 +4°C° 0 mm 2 mps 649 mmHg 68%
    16:00 +2°C° 0 mm 2 mps 648 mmHg 69%
    17:00 +1°C° 0 mm 2 mps 648 mmHg 70%
    18:00 -2°C° 0 mm 3 mps 648 mmHg 71%
    19:00 -2°C° 0 mm 3 mps 648 mmHg 71%
    20:00 -2°C° 0 mm 3 mps 648 mmHg 71%
    21:00 -2°C° 0 mm 3 mps 649 mmHg 71%
    22:00 -2°C° 0 mm 3 mps 648 mmHg 73%
    23:00 -2°C° 0 mm 3 mps 648 mmHg 75%
    Show more